[ show orbit diagram ]
Orbital Elements at Epoch 2459000.5 (2020-May-31.0) TDB
Reference: JPL 33 (heliocentric ecliptic J2000)
Element | Value | Uncertainty (1-sigma) | Units |
e | .1378036546509915 | 3.1515e-08 | |
a | 2.269557060297626 | 5.3503e-09 | au |
q | 1.956803802949653 | 7.0417e-08 | au |
i | 7.371579905512961 | 3.6614e-06 | deg |
node | 93.8443421076843 | 3.165e-05 | deg |
peri | 43.48641315707981 | 3.5566e-05 | deg |
M | 70.37396326642826 | 1.6377e-05 | deg |
tp | 2458756.370874635597 (2019-Sep-29.87087464) | 5.6602e-05 | TDB |
period | 1248.849447322673 3.42 | 4.4161e-06 1.209e-08 | d yr |
n | .2882653315592048 | 1.0193e-09 | deg/d |
Q | 2.5823103176456 | 6.0876e-09 | au |
|
| | Orbit Determination Parameters
Additional Information
|
[ show covariance matrix ]
Physical Parameter Table
Parameter |
Symbol |
Value |
Units |
Sigma |
Reference |
Notes |
absolute magnitude |
H |
11.4 |
|
n/a |
MPO502163 |
|
diameter |
diameter |
12.619 |
km |
0.242 |
urn:nasa:pds:neowise_diameters_albedos::2.0[mainbelt] (http://adsabs.harvard.edu/abs/2014ApJ...791..121M) |
|
rotation period |
rot_per |
85. |
h |
n/a |
LCDB (Rev. 2020-October); Warner et al., 2009 |
Published Reference List: [Wisniewski, W.Z.; Michalowski, T.M.; Harris, A.W.; McMillan, R.S. (1997) Icarus 126, 395-449; 1995, Lunar & Planetary Sci. XXVI, 1511-1512.] [Waszczak, A.; Chang, C.-K.; Ofeck, E.O.; Laher, F.; et al. (2015) Astron. J. 150, A75.] [Pal, A.; Szakats, R.; Kiss, C.; Bodi, A.; et al. (2019) Ap. J. Supl. Ser. 247, id.26.] |
geometric albedo |
albedo |
0.262 |
|
0.041 |
urn:nasa:pds:neowise_diameters_albedos::2.0[mainbelt] (http://adsabs.harvard.edu/abs/2014ApJ...791..121M) |
|
B-V |
BV |
0.889 |
|
0.021 |
EAR-A-5-DDR-UBV-MEAN-VALUES-V1.2 |
#obs=1; phase=5.02 deg. |
U-B |
UB |
0.490 |
|
0.027 |
EAR-A-5-DDR-UBV-MEAN-VALUES-V1.2 |
#obs=1; phase=5.02 deg. |
Tholen spectral type |
spec_T |
S |
|
n/a |
EAR-A-5-DDR-TAXONOMY-V4.0 |
used 7 color indices |
|
1078 Mentha (1926 XB) Discovered 1926-Dec-07 by Reinmuth, K. at Heidelberg |
In 1958 A. Patry, Nice, found that planet 864 Aase, discovered 1917 Feb. 13 by M. Wolf, Heidelberg, is identical with 1078 Mentha, discovered 1926 Dec. 7 by K. Reinmuth, Heidelberg. This object retains the latter designation 1078 Mentha. In 1974 the designation 864 Aase was assigned to planet 1921 KE, discovered 1921 Sept. 30 by K. Reinmuth and newly catalogued. |
Note: "planet" implies "minor planet" |
Reference: DISCOVERY.DB | Last Updated: 2003-08-29 |
|
[ show close-approach data ]
Alternate Designations
1926 XB = 1951 CF1 = 1952 LD = A917 CB = A924 EP |
|
|
|